Flag for Turkey Weather past 2 weeks in Samsun, Turkey

Now
48 °F

Clear.


Feels Like: 48 °F
Forecast: 40 / 55 °F
Wind: 2 mph from North

Location: Samsun / Carsamba

Current Time: Dec 20, 2014 at 6:36:21 PM

Latest Report: Dec 20, 2014 at 5:50 PM


Visibility: 10 mi

Pressure: 30.12 "Hg

Humidity: 82%

Dew point: 43 °F

Location of SamsunLocation

Historic Weather in Samsun — Graph

°F

Samsun temperature yesterday

Maximum temperature yesterday: 54 °F (at 4:50 AM)
Minimum temperature yesterday: 48 °F (at 2:50 AM)
Average temperature yesterday: 52 °F

Past Weeks' High & Low Weather Summary

 TemperatureHumidityPressure
High72 °F (Dec 7, 11:50 AM)100% (Dec 6, 7:50 AM)30.36 "Hg (Dec 6, 7:50 AM)
Low30 °F (Dec 17, 5:50 AM)33% (Dec 7, 11:50 AM)29.83 "Hg (Dec 9, 11:50 AM)
Average52 °F81%30.12 "Hg
* Reported Dec 5 4:50 PM — Dec 20 4:50 PM, Samsun, Weather by CustomWeather, © 2014

Note: Actual official high and low records may vary slightly from our data, if they occured in-between our weather recording intervals... More about our weather records

Advertising

Samsun weather history for previous 24 hours

 ConditionsComfort  
Time TempWeatherWind HumidityBarometerVisibility
4:50 PM
Dec 20
52 °FClear.6 mph72%30.12 "Hg10 mi
3:50 PM55 °FPassing clouds.3 mph67%30.12 "HgN/A
2:50 PM57 °FSunny.6 mph67%30.12 "Hg10 mi
1:50 PM61 °FSunny.2 mph52%30.09 "Hg10 mi
12:50 PM61 °FPassing clouds.5 mph59%30.12 "HgN/A
11:50 AM59 °FSunny.2 mph55%30.12 "Hg10 mi
10:50 AM57 °FSunny.2 mph63%30.15 "Hg10 mi
9:50 AM54 °FSunny.6 mph77%30.18 "Hg10 mi
8:50 AM48 °FPassing clouds.3 mph94%30.18 "HgN/A
7:50 AM46 °FPassing clouds.7 mph93%30.18 "HgN/A
6:50 AM45 °FPassing clouds.8 mph100%30.18 "HgN/A
5:50 AM45 °FPassing clouds.5 mph100%30.21 "Hg5 mi
4:50 AM46 °FPartly cloudy.6 mph93%30.21 "Hg5 mi
3:50 AM45 °FPartly cloudy.3 mph100%30.21 "Hg4 mi
2:57 AM46 °FPassing clouds.2 mph93%30.21 "Hg1 mi
1:50 AM48 °FMostly cloudy.No wind94%30.21 "Hg4 mi
12:50 AM48 °FOvercast.1 mph100%30.21 "Hg4 mi
11:50 PM
Dec 19
48 °FLight rain. Overcast.2 mph100%30.24 "Hg4 mi
10:50 PM50 °FLight rain. Overcast.2 mph94%30.24 "Hg4 mi
9:50 PM50 °FLight rain. Overcast.3 mph94%30.24 "Hg4 mi
8:50 PM50 °FLight rain. Mostly cloudy.2 mph94%30.24 "Hg4 mi
7:50 PM50 °FLight rain. Mostly cloudy.5 mph94%30.24 "Hg4 mi
6:50 PM50 °FLight rain. Mostly cloudy.7 mph94%30.24 "Hg4 mi
Weather by CustomWeather, © 2014

See weather overviewHow to use our weather pages